[[{"header":{"parameterUnit":"m.s-1","parameterCategory":1,"la1":30.2991,"la2":30.254,"lo1":-89.0895,"lo2":-89.0444,"dx":0.0017,"dy":0.0017,"nx":28,"ny":28,"refTime":"2023-01-23T03:00:00:Z","depth":0,"parameterNumber":2,"parameterNumberName":"U-component_of_WINDS"},"data":[0,0,0,0,0,0,0,0,0,0,0,0,0,0,0,0,0,0,0,0,0,0,0,0,0,0,0,0,0,0,0,0,0,0,0,0,0,0,0,0,0,0,0,0,0,0,0,0,0,0,0,0,0,0,0,0,0,0,-3.1293,-3.1293,0,-3.1306,-3.1306,-3.1306,-3.1146,-3.1141,-3.1137,-3.1133,-3.1152,-3.1156,-3.1161,0,0,0,0,0,0,0,0,0,0,0,0,0,-3.1135,-3.1138,-3.1293,-3.1293,-3.1293,-3.1306,-3.1306,-3.1306,-3.1146,-3.1141,-3.1136,-3.1131,-3.115,-3.1156,-3.1161,0,0,0,0,0,0,0,0,0,0,0,0,0,-3.1181,-3.114,-3.1293,-3.1215,-3.1208,-3.1306,-3.1306,-3.1306,-3.1147,-3.1141,-3.1134,-3.1128,-3.1148,-3.1155,-3.1162,-3.1336,0,0,-3.1183,-3.1186,0,0,0,0,0,0,0,0,-3.1179,-3.1187,-3.1226,-3.122,-3.1213,-3.1217,-3.1257,-3.1316,-3.1149,-3.1171,-3.1132,-3.1125,-3.1179,-3.1183,-3.12,-3.1337,-3.1338,-3.1184,-3.1188,-3.1191,-3.1193,0,0,0,0,0,0,0,-3.1176,-3.1186,-3.1298,-3.1227,-3.1219,-3.1181,-3.118,-3.1267,-3.1212,-3.1168,-3.1157,-3.116,-3.1174,-3.1194,-3.1199,-3.1338,-3.1183,-3.1189,-3.1194,-3.1196,-3.1618,-3.1625,0,0,0,0,0,0,-3.1182,-3.1184,-3.1298,-3.1298,-3.1179,-3.1189,-3.1188,-3.1223,-3.121,-3.1202,-3.1166,-3.1152,-3.1185,-3.1192,-3.12,-3.1402,-3.1191,-3.1197,-3.1201,-3.1611,-3.162,-3.1628,0,0,0,0,0,0,-3.118,-3.1194,-3.1297,-3.1238,-3.1248,-3.1199,-3.1239,-3.1226,-3.1245,-3.1208,-3.1198,-3.1196,-3.118,-3.119,-3.1303,-3.1401,-3.12,-3.1206,-3.1603,-3.1614,-3.1624,-3.181,0,0,0,0,0,0,-3.1176,-3.1194,-3.1259,-3.1241,-3.1252,-3.14,-3.1245,-3.1231,-3.1257,-3.124,-3.1234,-3.1226,-3.1176,-3.1293,-3.131,-3.1406,-3.1212,-3.1594,-3.1608,-3.162,-3.1795,-3.1825,-3.1852,0,0,0,0,0,-3.1171,-3.1312,-3.1263,-3.1278,-3.1332,-3.1405,-3.1412,-3.1349,-3.1266,-3.1331,-3.1307,-3.1227,-3.1387,-3.1306,-3.1323,-3.1424,-3.1588,-3.1604,-3.1619,-3.1782,-3.1819,-3.1851,0,0,0,0,0,0,-3.1346,-3.1309,-3.1253,-3.1393,-3.1403,-3.1378,-3.1459,-3.1391,-3.1427,-3.141,-3.1332,-3.1332,-3.1458,-3.1452,-3.1363,-3.1591,-3.1473,-3.1493,-3.1591,-3.1626,-3.1654,-3.1653,-3.1218,0,0,0,0,0,-3.14,-3.1461,-3.1426,-3.1553,-3.1561,-3.151,-3.1539,-3.149,-3.1498,-3.1502,-3.1486,-3.1499,-3.1552,-3.1588,-3.1635,-3.1793,-3.1789,-3.187,-3.1899,-3.1922,-3.1941,-3.2023,-3.2058,-3.168,-3.168,-3.1679,0,0,-3.1514,-3.1501,-3.1545,-3.1588,-3.159,-3.1656,-3.1514,-3.1591,-3.1639,-3.1514,-3.1619,-3.1608,-3.1617,-3.1753,-3.1812,-3.1752,-3.2044,-3.1943,-3.1962,-3.1967,-3.2043,-3.2079,-3.2111,-3.1691,-3.1689,-3.1687,0,0,-3.1755,-3.1752,-3.1856,-3.1861,-3.1865,-3.1829,-3.1855,-3.184,-3.1827,-3.1931,-3.1838,-3.1895,-3.1989,-3.1998,-3.2016,-3.226,-3.2187,-3.2277,-3.2426,-3.2507,-3.2537,-3.2563,-3.265,-3.2682,-3.2296,-3.2296,-3.2296,0,-3.1897,-3.1991,-3.1919,-3.2001,-3.2023,-3.191,-3.2016,-3.2025,-3.2045,-3.2063,-3.1995,-3.2108,-3.2107,-3.2243,-3.2302,-3.232,-3.2347,-3.2278,-3.2538,-3.2564,-3.2587,-3.2669,-3.2702,-3.2307,-3.2306,-3.2305,-3.2304,0,-3.2165,-3.2232,-3.2316,-3.2336,-3.2367,-3.2462,-3.2405,-3.2445,-3.2393,-3.2365,-3.2472,-3.2466,-3.2509,-3.2537,-3.2489,-3.2667,-3.2629,-3.2552,-3.2431,-3.2635,-3.2711,-3.2742,-3.2323,-3.2319,-3.2315,-3.2313,0,0,-3.2518,-3.2495,-3.2527,-3.2534,-3.253,-3.2581,-3.2671,-3.271,-3.2746,-3.2764,-3.2837,-3.2918,-3.2845,-3.2865,-3.2816,-3.2887,-3.308,-3.2799,-3.2798,-3.2852,-3.3276,-3.3334,-3.3372,-3.3031,-3.3037,-3.3042,-3.3275,0,-3.2751,-3.29,-3.2837,-3.2993,-3.3054,-3.2947,-3.3024,-3.3031,-3.3008,-3.3057,-3.3032,-3.309,-3.2989,-3.3,-3.3066,-3.3043,-3.3164,-3.3025,-3.31,-3.3103,-3.31,-3.3411,-3.3473,-3.3694,-3.3304,-3.3309,-3.3312,0,-3.3044,-3.3072,-3.3233,-3.3216,-3.324,-3.331,-3.3341,-3.3389,-3.3395,-3.3373,-3.3395,-3.3329,-3.3416,-3.3296,-3.3415,-3.3322,-3.3349,-3.3342,-3.3349,-3.3353,-3.322,-3.3424,-3.3762,-3.3796,-3.3358,-3.3355,-3.3351,0,-3.3285,-3.3362,-3.3467,-3.3477,-3.3461,-3.3513,-3.3509,-3.3508,-3.3536,-3.3564,-3.3581,-3.362,-3.3641,-3.3673,-3.362,-3.3537,-3.3747,-3.3622,-3.3732,-3.3733,-3.3781,-3.3778,-3.4128,-3.3799,-3.3799,-3.3798,-3.3797,0,-3.3552,-3.3655,-3.3575,-3.364,-3.3752,-3.3679,-3.3793,-3.3777,-3.3777,-3.3838,-3.3749,-3.3809,-3.3735,-3.3788,-3.3748,-3.3853,-3.3863,-3.3848,-3.3836,-3.3856,-3.3858,-3.3873,-3.3856,-3.3807,-3.3805,-3.3803,-3.3802,0,-3.3839,-3.379,-3.3898,-3.3873,-3.3869,-3.3953,-3.3932,-3.3992,-3.3962,-3.404,-3.4055,-3.4008,-3.4066,-3.4016,-3.4072,-3.4045,-3.4184,-3.415,-3.4182,-3.4172,-3.4284,-3.4274,-3.4655,-3.4701,-3.4343,-3.4347,-3.435,0,-3.4013,-3.4089,-3.4072,-3.4105,-3.4106,-3.4162,-3.4189,-3.4121,-3.4153,-3.4164,-3.4223,-3.4272,-3.4308,-3.4406,-3.4378,-3.442,-3.4387,-3.4517,-3.4393,-3.441,-3.4388,-3.4384,-3.4391,-3.4543,-3.4547,-3.455,-3.4553,0,-3.4326,-3.4298,-3.4339,-3.4373,-3.4407,-3.443,-3.4447,-3.448,-3.441,-3.4451,-3.4507,-3.4535,-3.4591,-3.4642,-3.4675,-3.4672,-3.4602,-3.4593,-3.462,-3.4641,-3.4655,-3.4648,-3.425,-3.4584,-3.4581,-3.4579,-3.4577,-3.4576,-3.4561,-3.4623,-3.462,-3.467,-3.4674,-3.4692,-3.4746,-3.4722,-3.4767,-3.4806,-3.4764,-3.4833,-3.4836,-3.4873,-3.4878,-3.4932,-3.4878,-3.4918,-3.4928,-3.4939,-3.4954,-3.4647,-3.4938,-3.4937,-3.4936,-3.4936,-3.4935,0,-3.4869,-3.4862,-3.4908,-3.4932,-3.4971,-3.49,-3.4914,-3.4952,-3.5013,-3.5021,-3.5057,-3.5122,-3.5171,-3.5146,-3.5188,-3.5236,-3.5205,-3.525,-3.5245,-3.5246,-3.5001,-3.4973,-3.5274,-3.5274,-3.5274,-3.5274,-3.5274,-3.5274,-3.5034,-3.5135,-3.5106,-3.5209,-3.52,-3.5266,-3.528,-3.5296,-3.5302,-3.5377,-3.5416,-3.5399,-3.5394,-3.5435,-3.5477,-3.5468,-3.5488,-3.5544,-3.5524,-3.5296,-3.5263,-3.5231,-3.5204,-3.5549,-3.5549,-3.5764,-3.5766,-3.5768]},{"header":{"parameterUnit":"m.s-1","parameterCategory":1,"la1":30.2991,"la2":30.254,"lo1":-89.0895,"lo2":-89.0444,"dx":0.0017,"dy":0.0017,"nx":28,"ny":28,"refTime":"2023-01-23T03:00:00:Z","depth":0,"parameterNumber":3,"parameterNumberName":"V-component_of_WINDS"},"data":[0,0,0,0,0,0,0,0,0,0,0,0,0,0,0,0,0,0,0,0,0,0,0,0,0,0,0,0,0,0,0,0,0,0,0,0,0,0,0,0,0,0,0,0,0,0,0,0,0,0,0,0,0,0,0,0,0,0,-2.3573,-2.3573,0,-2.3626,-2.3626,-2.3627,-2.3599,-2.3598,-2.3596,-2.3595,-2.3648,-2.365,-2.3653,0,0,0,0,0,0,0,0,0,0,0,0,0,-2.3444,-2.3446,-2.3572,-2.3573,-2.3574,-2.3626,-2.3626,-2.3627,-2.36,-2.3598,-2.3596,-2.3595,-2.3647,-2.365,-2.3653,0,0,0,0,0,0,0,0,0,0,0,0,0,-2.3499,-2.3447,-2.3572,-2.3566,-2.3566,-2.3625,-2.3626,-2.3627,-2.36,-2.3598,-2.3596,-2.3594,-2.3646,-2.365,-2.3654,-2.3721,0,0,-2.3666,-2.3668,0,0,0,0,0,0,0,0,-2.3496,-2.3503,-2.3567,-2.3567,-2.3567,-2.3604,-2.36,-2.3659,-2.36,-2.3587,-2.3595,-2.3593,-2.3635,-2.3639,-2.3654,-2.3724,-2.3726,-2.3666,-2.3669,-2.3671,-2.3672,0,0,0,0,0,0,0,-2.3492,-2.3501,-2.3593,-2.3568,-2.3568,-2.356,-2.3565,-2.3611,-2.3622,-2.3588,-2.3586,-2.3593,-2.3634,-2.365,-2.3655,-2.3727,-2.3666,-2.367,-2.3672,-2.3674,-2.3852,-2.3854,0,0,0,0,0,0,-2.3489,-2.3498,-2.3592,-2.3595,-2.3525,-2.3564,-2.357,-2.3594,-2.3621,-2.3624,-2.3595,-2.3592,-2.3644,-2.365,-2.3657,-2.3737,-2.3671,-2.3674,-2.3677,-2.385,-2.3853,-2.3855,0,0,0,0,0,0,-2.3486,-2.3497,-2.359,-2.3546,-2.3557,-2.3568,-2.3596,-2.3596,-2.3612,-2.3627,-2.3628,-2.3609,-2.3643,-2.3651,-2.3705,-2.3738,-2.3676,-2.368,-2.3847,-2.3851,-2.3854,-2.3897,0,0,0,0,0,0,-2.3482,-2.3497,-2.3523,-2.3547,-2.356,-2.3638,-2.3598,-2.3599,-2.3619,-2.3616,-2.3641,-2.3643,-2.3642,-2.3699,-2.3709,-2.3743,-2.3683,-2.3844,-2.3849,-2.3853,-2.3893,-2.3902,-2.3909,0,0,0,0,0,-2.3478,-2.3533,-2.3525,-2.3536,-2.3593,-2.364,-2.3647,-2.3646,-2.3622,-2.3648,-2.3657,-2.3642,-2.3733,-2.3705,-2.3716,-2.3751,-2.3842,-2.3847,-2.3852,-2.3889,-2.39,-2.3909,0,0,0,0,0,0,-2.3513,-2.3536,-2.3527,-2.3592,-2.3614,-2.3635,-2.3669,-2.3658,-2.3687,-2.3682,-2.3678,-2.3684,-2.374,-2.3751,-2.3719,-2.3817,-2.3784,-2.3791,-2.3808,-2.3818,-2.3826,-2.3822,-2.3687,0,0,0,0,0,-2.3528,-2.3565,-2.3583,-2.3639,-2.365,-2.3658,-2.3678,-2.3675,-2.3698,-2.3707,-2.372,-2.3742,-2.3775,-2.3797,-2.3829,-2.3894,-2.3898,-2.3923,-2.3932,-2.3938,-2.3945,-2.3979,-2.399,-2.3872,-2.3872,-2.3872,0,0,-2.356,-2.3578,-2.3601,-2.3646,-2.3663,-2.37,-2.3666,-2.3707,-2.3734,-2.3713,-2.3765,-2.3775,-2.3799,-2.3858,-2.3885,-2.3869,-2.3978,-2.3945,-2.395,-2.3953,-2.3985,-2.3997,-2.4006,-2.3875,-2.3875,-2.3874,0,0,-2.3638,-2.3655,-2.3702,-2.372,-2.3746,-2.375,-2.3761,-2.3784,-2.379,-2.3842,-2.3826,-2.3858,-2.3916,-2.3933,-2.395,-2.4031,-2.4018,-2.4042,-2.4085,-2.4118,-2.4127,-2.4135,-2.4164,-2.4174,-2.4048,-2.4048,-2.4048,0,-2.3674,-2.3731,-2.3728,-2.377,-2.379,-2.3772,-2.3819,-2.3836,-2.3871,-2.3884,-2.3866,-2.3937,-2.3952,-2.4015,-2.4035,-2.4049,-2.4061,-2.4039,-2.4126,-2.4134,-2.4142,-2.4169,-2.418,-2.4051,-2.4051,-2.405,-2.405,0,-2.3773,-2.3813,-2.3847,-2.3882,-2.3905,-2.395,-2.3953,-2.3976,-2.3971,-2.3976,-2.4028,-2.4046,-2.408,-2.4094,-2.4089,-2.4156,-2.4145,-2.4126,-2.4093,-2.4156,-2.4181,-2.4192,-2.4055,-2.4054,-2.4053,-2.4052,0,0,-2.3876,-2.3907,-2.392,-2.3934,-2.3961,-2.3991,-2.4033,-2.4067,-2.4087,-2.4111,-2.4146,-2.4195,-2.4177,-2.4196,-2.4192,-2.4221,-2.4284,-2.4199,-2.4199,-2.4214,-2.4357,-2.4371,-2.4383,-2.4275,-2.4277,-2.4278,-2.4355,0,-2.3954,-2.403,-2.4028,-2.4099,-2.4134,-2.4116,-2.4153,-2.4173,-2.4179,-2.4209,-2.4215,-2.4249,-2.4224,-2.4235,-2.4263,-2.427,-2.4313,-2.4265,-2.4306,-2.4308,-2.4301,-2.4397,-2.4412,-2.4484,-2.4365,-2.4367,-2.4368,0,-2.4057,-2.4084,-2.4158,-2.4178,-2.4193,-2.4226,-2.4256,-2.4285,-2.4306,-2.4308,-2.4329,-2.432,-2.4362,-2.4327,-2.4384,-2.4351,-2.4368,-2.4374,-2.4377,-2.4381,-2.4342,-2.4403,-2.4507,-2.4518,-2.4384,-2.4382,-2.4381,0,-2.4123,-2.4179,-2.423,-2.4243,-2.4268,-2.4291,-2.4302,-2.4321,-2.4341,-2.4367,-2.4379,-2.441,-2.4426,-2.4449,-2.4448,-2.4423,-2.4505,-2.4471,-2.4508,-2.4508,-2.4526,-2.4525,-2.4634,-2.4537,-2.4537,-2.4537,-2.4536,0,-2.4212,-2.4257,-2.426,-2.4291,-2.4341,-2.4337,-2.4387,-2.4395,-2.4412,-2.4444,-2.443,-2.446,-2.4457,-2.4487,-2.4486,-2.4533,-2.454,-2.4543,-2.4542,-2.4544,-2.4544,-2.4555,-2.455,-2.454,-2.4539,-2.4538,-2.4538,0,-2.4295,-2.4299,-2.4353,-2.4371,-2.4377,-2.4413,-2.4428,-2.4457,-2.4461,-2.4501,-2.451,-2.4517,-2.4551,-2.4552,-2.4591,-2.4591,-2.4648,-2.4641,-2.4641,-2.4639,-2.4676,-2.4673,-2.4796,-2.4812,-2.4705,-2.4706,-2.4707,0,-2.4351,-2.4386,-2.4408,-2.4428,-2.4441,-2.4474,-2.4494,-2.4491,-2.4512,-2.4538,-2.4563,-2.4596,-2.4623,-2.4678,-2.4685,-2.4714,-2.4709,-2.475,-2.4713,-2.4714,-2.4709,-2.4707,-2.471,-2.4757,-2.4758,-2.4759,-2.476,0,-2.445,-2.445,-2.448,-2.451,-2.4534,-2.4557,-2.4579,-2.4596,-2.4595,-2.462,-2.4654,-2.4675,-2.4714,-2.4747,-2.4775,-2.4785,-2.4772,-2.4771,-2.4782,-2.4784,-2.4782,-2.4783,-2.466,-2.4769,-2.4768,-2.4767,-2.4767,-2.4767,-2.4522,-2.4551,-2.4571,-2.4604,-2.4619,-2.464,-2.4667,-2.4675,-2.4704,-2.4736,-2.4732,-2.4771,-2.4789,-2.4826,-2.4838,-2.4867,-2.4853,-2.4868,-2.4871,-2.4875,-2.4879,-2.4777,-2.4873,-2.4872,-2.4872,-2.4872,-2.4872,0,-2.462,-2.4631,-2.4661,-2.4692,-2.4718,-2.4703,-2.4726,-2.4748,-2.4782,-2.4801,-2.4826,-2.4865,-2.4896,-2.4906,-2.4935,-2.4957,-2.4952,-2.4965,-2.4963,-2.4965,-2.489,-2.4879,-2.4968,-2.4968,-2.4968,-2.4968,-2.4968,-2.4968,-2.4674,-2.4722,-2.4724,-2.478,-2.479,-2.4828,-2.4842,-2.486,-2.4875,-2.4919,-2.4945,-2.4951,-2.4965,-2.4996,-2.5023,-2.5025,-2.5036,-2.5051,-2.5051,-2.4981,-2.4971,-2.4962,-2.4951,-2.5054,-2.5054,-2.5123,-2.5124,-2.5125]}]]